When you browse on this site, cookies collect data to enhance your experience and personalize the content and advertising you see.
Visit our Privacy Policy to learn more. By continuing to use the site, you agree to this use of cookies and data.

Meteo pe oră la Dzierzazenko

Astăzi, 19 Septembrie, Sâmbătă

Timp Temperatura Precipitaţii Vânt Presiune Umiditate
00:00 +10°C° 0 mm 1 m/s 759 mmHg 65%
01:00 +9°C° 0 mm 1 m/s 759 mmHg 66%
02:00 +9°C° 0 mm 1 m/s 759 mmHg 66%
03:00 +8°C° 0 mm 0 m/s 758 mmHg 66%
04:00 +8°C° 0 mm 0 m/s 758 mmHg 66%
05:00 +8°C° 0 mm 0 m/s 758 mmHg 65%
06:00 +9°C° 0 mm 0 m/s 758 mmHg 64%
07:00 +10°C° 0 mm 0 m/s 758 mmHg 60%
08:00 +12°C° 0 mm 0 m/s 758 mmHg 55%
09:00 +14°C° 0 mm 0 m/s 758 mmHg 49%
10:00 +16°C° 0 mm 0 m/s 758 mmHg 43%
11:00 +17°C° 0 mm 0 m/s 758 mmHg 40%
12:00 +18°C° 0 mm 0 m/s 758 mmHg 36%
13:00 +19°C° 0 mm 0 m/s 758 mmHg 33%
14:00 +19°C° 0 mm 0 m/s 757 mmHg 35%
15:00 +18°C° 0 mm 0 m/s 757 mmHg 36%
16:00 +18°C° 0 mm 0 m/s 757 mmHg 38%
17:00 +16°C° 0 mm 0 m/s 756 mmHg 41%
18:00 +16°C° 0 mm 1 m/s 756 mmHg 43%
19:00 +14°C° 0 mm 1 m/s 756 mmHg 46%
20:00 +14°C° 0 mm 1 m/s 756 mmHg 49%
21:00 +13°C° 0 mm 1 m/s 756 mmHg 51%
22:00 +13°C° 0 mm 1 m/s 756 mmHg 54%
23:00 +13°C° 0 mm 1 m/s 756 mmHg 56%

Mâine, 20 Septembrie, Duminică

Timp Temperatura Precipitaţii Vânt Presiune Umiditate
00:00 +12°C° 0 mm 1 m/s 756 mmHg 58%
01:00 +12°C° 0 mm 1 m/s 756 mmHg 60%
02:00 +12°C° 0 mm 1 m/s 756 mmHg 60%
03:00 +10°C° 0 mm 2 m/s 756 mmHg 60%
04:00 +10°C° 0 mm 2 m/s 755 mmHg 60%
05:00 +10°C° 0 mm 2 m/s 756 mmHg 61%
06:00 +12°C° 0 mm 2 m/s 756 mmHg 61%
07:00 +12°C° 0 mm 2 m/s 756 mmHg 61%
08:00 +14°C° 0 mm 2 m/s 756 mmHg 56%
09:00 +15°C° 0 mm 2 m/s 756 mmHg 51%
10:00 +17°C° 0 mm 3 m/s 756 mmHg 46%
11:00 +18°C° 0 mm 3 m/s 755 mmHg 42%
12:00 +19°C° 0 mm 3 m/s 755 mmHg 38%
13:00 +20°C° 0 mm 3 m/s 755 mmHg 34%
14:00 +20°C° 0 mm 3 m/s 755 mmHg 36%
15:00 +20°C° 0 mm 2 m/s 754 mmHg 37%
16:00 +20°C° 0 mm 2 m/s 754 mmHg 38%
17:00 +18°C° 0 mm 2 m/s 754 mmHg 43%
18:00 +16°C° 0 mm 2 m/s 754 mmHg 47%
19:00 +14°C° 0 mm 1 m/s 754 mmHg 52%
20:00 +13°C° 0 mm 1 m/s 754 mmHg 54%
21:00 +13°C° 0 mm 1 m/s 754 mmHg 56%
22:00 +12°C° 0 mm 1 m/s 754 mmHg 57%
23:00 +12°C° 0 mm 1 m/s 754 mmHg 59%

Poimâine, 21 Septembrie, Luni

Timp Temperatura Precipitaţii Vânt Presiune Umiditate
00:00 +11°C° 0 mm 1 m/s 754 mmHg 60%
01:00 +11°C° 0 mm 1 m/s 753 mmHg 61%
02:00 +10°C° 0 mm 1 m/s 753 mmHg 62%
03:00 +10°C° 0 mm 1 m/s 753 mmHg 64%
04:00 +10°C° 0 mm 1 m/s 753 mmHg 65%
05:00 +10°C° 0 mm 1 m/s 753 mmHg 65%
06:00 +10°C° 0 mm 2 m/s 753 mmHg 65%
07:00 +10°C° 0 mm 2 m/s 753 mmHg 65%
08:00 +13°C° 0 mm 2 m/s 753 mmHg 60%
09:00 +16°C° 0 mm 2 m/s 753 mmHg 55%
10:00 +18°C° 0 mm 2 m/s 753 mmHg 50%
11:00 +19°C° 0 mm 2 m/s 753 mmHg 48%
12:00 +21°C° 0 mm 2 m/s 753 mmHg 46%
13:00 +23°C° 0 mm 2 m/s 752 mmHg 43%
14:00 +23°C° 0 mm 2 m/s 752 mmHg 44%
15:00 +23°C° 0 mm 1 m/s 752 mmHg 44%
16:00 +23°C° 0 mm 1 m/s 751 mmHg 45%
17:00 +21°C° 0 mm 1 m/s 751 mmHg 51%
18:00 +19°C° 0 mm 1 m/s 751 mmHg 57%
19:00 +16°C° 0 mm 1 m/s 751 mmHg 63%
20:00 +16°C° 0 mm 1 m/s 751 mmHg 64%
21:00 +15°C° 0 mm 1 m/s 751 mmHg 66%
22:00 +15°C° 0 mm 1 m/s 751 mmHg 68%
23:00 +15°C° 0 mm 1 m/s 750 mmHg 69%

22 Septembrie, Marţi

Timp Temperatura Precipitaţii Vânt Presiune Umiditate
00:00 +15°C° 0 mm 1 m/s 750 mmHg 70%
01:00 +14°C° 0 mm 1 m/s 750 mmHg 72%
02:00 +14°C° 0 mm 1 m/s 750 mmHg 73%
03:00 +14°C° 0 mm 1 m/s 749 mmHg 74%
04:00 +14°C° 0 mm 1 m/s 749 mmHg 76%
05:00 +14°C° 0 mm 1 m/s 749 mmHg 75%
06:00 +14°C° 0 mm 2 m/s 749 mmHg 74%
07:00 +15°C° 0 mm 2 m/s 749 mmHg 73%
08:00 +17°C° 0 mm 2 m/s 749 mmHg 66%
09:00 +19°C° 0 mm 2 m/s 749 mmHg 59%
10:00 +21°C° 0 mm 3 m/s 749 mmHg 52%
11:00 +22°C° 0 mm 3 m/s 748 mmHg 48%
12:00 +24°C° 0 mm 3 m/s 748 mmHg 45%
13:00 +25°C° 0 mm 4 m/s 747 mmHg 42%
14:00 +25°C° 0 mm 3 m/s 747 mmHg 43%
15:00 +25°C° 0 mm 3 m/s 746 mmHg 45%
16:00 +25°C° 0 mm 3 m/s 746 mmHg 47%
17:00 +22°C° 0 mm 3 m/s 746 mmHg 52%
18:00 +20°C° 0 mm 2 m/s 746 mmHg 57%
19:00 +19°C° 0 mm 2 m/s 745 mmHg 62%
20:00 +18°C° 0 mm 2 m/s 745 mmHg 63%
21:00 +18°C° 0 mm 2 m/s 745 mmHg 65%
22:00 +17°C° 0 mm 2 m/s 745 mmHg 67%
23:00 +17°C° 0 mm 2 m/s 745 mmHg 69%

23 Septembrie, Miercuri

Timp Temperatura Precipitaţii Vânt Presiune Umiditate
00:00 +16°C° 0 mm 2 m/s 744 mmHg 71%
01:00 +16°C° 0 mm 2 m/s 744 mmHg 73%
02:00 +16°C° 0 mm 2 m/s 744 mmHg 76%
03:00 +16°C° 0 mm 2 m/s 744 mmHg 78%
04:00 +15°C° 0 mm 2 m/s 743 mmHg 80%
05:00 +16°C° 0 mm 2 m/s 743 mmHg 79%
06:00 +16°C° 0 mm 2 m/s 743 mmHg 78%
07:00 +16°C° 0 mm 2 m/s 743 mmHg 77%
08:00 +18°C° 0 mm 2 m/s 743 mmHg 69%
09:00 +20°C° 0 mm 2 m/s 743 mmHg 62%
10:00 +23°C° 0 mm 2 m/s 743 mmHg 55%
11:00 +24°C° 0 mm 2 m/s 743 mmHg 52%
12:00 +26°C° 0 mm 2 m/s 742 mmHg 50%
13:00 +27°C° 0 mm 2 m/s 742 mmHg 47%
14:00 +26°C° 0 mm 3 m/s 742 mmHg 50%
15:00 +26°C° 0 mm 3 m/s 742 mmHg 52%
16:00 +26°C° 0 mm 3 m/s 741 mmHg 54%
17:00 +24°C° 0 mm 3 m/s 741 mmHg 60%
18:00 +21°C° 0 mm 2 m/s 741 mmHg 66%
19:00 +20°C° 0 mm 2 m/s 741 mmHg 72%
20:00 +19°C° 0 mm 2 m/s 741 mmHg 73%
21:00 +18°C° 0 mm 2 m/s 741 mmHg 73%
22:00 +18°C° 0 mm 2 m/s 741 mmHg 74%
23:00 +17°C° 0 mm 2 m/s 741 mmHg 72%

24 Septembrie, Joi

Timp Temperatura Precipitaţii Vânt Presiune Umiditate
00:00 +17°C° 0 mm 2 m/s 741 mmHg 70%
01:00 +17°C° 0 mm 2 m/s 741 mmHg 68%
02:00 +16°C° 0 mm 2 m/s 741 mmHg 69%
03:00 +16°C° 0 mm 2 m/s 741 mmHg 70%
04:00 +16°C° 0 mm 2 m/s 741 mmHg 71%
05:00 +16°C° 0 mm 2 m/s 742 mmHg 73%
06:00 +16°C° 0 mm 3 m/s 742 mmHg 75%
07:00 +16°C° 0 mm 3 m/s 742 mmHg 77%
08:00 +18°C° 0 mm 3 m/s 742 mmHg 73%
09:00 +19°C° 0 mm 3 m/s 743 mmHg 69%
10:00 +21°C° 0 mm 3 m/s 743 mmHg 65%
11:00 +22°C° 0 mm 3 m/s 743 mmHg 60%
12:00 +24°C° 0 mm 3 m/s 743 mmHg 56%
13:00 +24°C° 0 mm 3 m/s 743 mmHg 52%
14:00 +24°C° 0 mm 3 m/s 743 mmHg 53%
15:00 +24°C° 0 mm 3 m/s 742 mmHg 53%
16:00 +24°C° 0 mm 2 m/s 742 mmHg 54%
17:00 +21°C° 0 mm 2 m/s 742 mmHg 59%
18:00 +20°C° 0 mm 2 m/s 742 mmHg 64%
19:00 +18°C° 0 mm 2 m/s 741 mmHg 69%
20:00 +18°C° 0 mm 2 m/s 741 mmHg 71%
21:00 +18°C° 0 mm 2 m/s 741 mmHg 73%
22:00 +17°C° 0 mm 3 m/s 741 mmHg 75%
23:00 +17°C° 0 mm 3 m/s 740 mmHg 76%
Arată mai mult